Hovedside
METAR-TAF:

METAR-TAF

Lufthavner :

Villmanstrand, Finland

Villmanstrand lufthavn

breddegrad: 61-02-45N, lengdegrad: 028-08-55E, høyde over havet: 106 m

Gjeldene værobservasjon

Denne rapporten ble laget for 17 minutter siden, klokken 14:20 UTC
Vind 8 kt fra Øst-nordøst
Temperatur -4°C
Luftfuktighet 93%
Trykk 1017 hPa
Sikt 10 km eller mer
Overskyet i en høyde av 700 ft

METAR: EFLP 221420Z AUTO 06008KT 9999 OVC007 M04/M05 Q1017

Tid: 16:37 (14:37 UTC)


TAF: fraværende

Værobservasjoner og værvarsel for over 4000 flyplasser (METAR- og TAF-rapporter).

Tilgjengelige stasjoner er representert av de røde og gule prikkene på kartet.

Hold musepekeren over prikken for å se navnet på stasjonen.

Klikk så for å se værobservasjoner og -varsler.

For å forandre kartet kan du klikke på den grønne knappen med svart kryss for å zoome inn, på den grønne knappen med strek for å zoome ut, eller på de grønne pilene for å se tilstøtende kart.


METAR-TAF: